Regional Weather Roundup
Issued by NWS Burlington, VT

Home | Current Version | Previous Version | Text Only | Print | Product List | Glossary On
Versions: 1 2 3 4 5 6 7 8 9 10 11 12 13 14 15 16 17 18 19 20 21 22 23 24 25 26 27 28 29 30 31 32 33 34 35 36 37 38 39 40 41 42 43 44 45 46 47 48 49 50
000
ASUS41 KBTV 290630
RWRBTV
VERMONT REGIONAL WEATHER ROUNDUP
NATIONAL WEATHER SERVICE BURLINGTON VT
200 AM EDT SUN MAR 29 2015

NOTE: "FAIR" INDICATES FEW OR NO CLOUDS BELOW 12,000 FEET WITH NO
SIGNIFICANT WEATHER AND/OR OBSTRUCTIONS TO VISIBILITY.

* THESE REPORTS ARE NOT UNDER NWS QUALITY CONTROL AND/OR DO NOT
  REPORT WEATHER SUCH AS PRECIPITATION AND FOG.

VTZ001>019-290700-
_____VERMONT_____


CITY           SKY/WX    TMP DP  RH WIND       PRES   REMARKS
BURLINGTON     CLEAR     16   9  74 CALM      30.12S
6HR MIN TEMP:  16; 6HR MAX TEMP:  24;

MONTPELIER     CLEAR     13   2  61 CALM      30.09S
6HR MIN TEMP:  12; 6HR MAX TEMP:  21;

MORRISVILLE    CLEAR     10   5  80 CALM      30.10S
6HR MIN TEMP:  10; 6HR MAX TEMP:  22;

ST. JOHNSBURY*   N/A     15   8  73 MISG      30.07R
6HR MIN TEMP:  15; 6HR MAX TEMP:  24;

LYNDONVILLE*     N/A     12   2  63 CALM      30.06R
6HR MIN TEMP:  12; 6HR MAX TEMP:  21;

MIDDLEBURY*      N/A     15  10  78 CALM      30.12S
6HR MIN TEMP:  16; 6HR MAX TEMP:  24;

RUTLAND*       CLEAR     14   9  79 CALM      30.09S
6HR MIN TEMP:  16; 6HR MAX TEMP:  23;

SPRINGFIELD    CLEAR     21   2  43 W3        30.08S
6HR MIN TEMP:  20; 6HR MAX TEMP:  26;

HIGHGATE*        N/A     18   9  67 CALM      30.12S
6HR MIN TEMP:  18; 6HR MAX TEMP:  23;

NEWPORT*         N/A     11   2  68 CALM      30.06S
6HR MIN TEMP:  10; 6HR MAX TEMP:  20;

BENNINGTON     CLEAR     19   4  51 W3        30.10R
6HR MIN TEMP:  19; 6HR MAX TEMP:  26;

SUTTON*          N/A      9 N/A N/A MISG        N/A
MT. MANSFIELD*   N/A      7 N/A N/A CALM        N/A

_____LAKE CHAMPLAIN_____


CITY           SKY/WX    TMP DP  RH WIND       PRES   REMARKS
BURTON ISLAND*   N/A     21  10  63 SE1         N/A
COLCHESTER RF*   N/A     23   7  50 SE3         N/A
DIAMOND ISL*     N/A     21  14  73 SE1         N/A

$$

NYZ007-026>031-035-052-083-290700-
_____NORTHERN NEW YORK_____


CITY           SKY/WX    TMP DP  RH WIND       PRES   REMARKS
PLATTSBURGH    CLEAR     21   3  45 VRB3      30.12R
6HR MIN TEMP:  20; 6HR MAX TEMP:  24;

SARANAC LAKE   CLEAR     -5  -9  83 CALM      30.05S
6HR MIN TEMP:  -5; 6HR MAX TEMP:  13;

MASSENA        CLEAR     16   4  59 SW3       30.17S
6HR MIN TEMP:  14; 6HR MAX TEMP:  25;

OGDENSBURG*    CLEAR     12   9  85 SW5       30.17S
POTSDAM*       CLEAR     16   7  67 SW6       30.16S
WATERTOWN      CLEAR     15   7  70 CALM      30.19S
6HR MIN TEMP:  15; 6HR MAX TEMP:  23;

FT DRUM        CLEAR     14   2  58 SW6       30.15R
6HR MIN TEMP:  13; 6HR MAX TEMP:  21;

ALBANY           N/A     20   4  50 NW8       30.16S
6HR MIN TEMP:  20; 6HR MAX TEMP:  28; 6HR PCP: TRACE;

GLENS FALLS    CLEAR     22   3  44 NW8       30.14S
6HR MIN TEMP:  22; 6HR MAX TEMP:  28;


$$
NHZ002-005-011-290700-
_____NEW HAMPSHIRE_____


CITY           SKY/WX    TMP DP  RH WIND       PRES   REMARKS
LEBANON        CLEAR     21   5  50 NW6       30.07S
6HR MIN TEMP:  21; 6HR MAX TEMP:  28;

KEENE          CLEAR     21   3  45 CALM      30.08S
6HR MIN TEMP:  23; 6HR MAX TEMP:  30;

MT WASHINGTON  PTCLDY    -2 -11  65 N16         N/A  WCI -23
6HR MIN TEMP:  -5; 6HR MAX TEMP:   2;

PLYMOUTH         N/A     22   9  57 W8        30.05F
6HR MIN TEMP:  23; 6HR MAX TEMP:  31;

WHITEFIELD     CLEAR     13   7  77 CALM      30.04S
6HR MIN TEMP:  12; 6HR MAX TEMP:  25;


$$

_____REGIONAL QUEBEC LOCATIONS_____


CITY           SKY/WX    TMP DP  RH WIND       PRES   REMARKS
MONTREAL       CLEAR     21   1  42 W7        30.13R
QUEBEC CITY    CLEAR     14   0  52 SW3       30.05R
SHERBROOKE     CLEAR      9   5  85 CALM      30.05R

_____REGIONAL ONTARIO LOCATIONS_____


CITY           SKY/WX    TMP DP  RH WIND       PRES   REMARKS
OTTAWA         CLEAR     18   0  45 W5        30.15S

______KEY______
VSB  - VISIBILITY IN MILES
WCI  - WIND CHILL INDEX
HX   - HEAT INDEX
$$
NNNN



USA.gov is the U.S. government's official web portal to all federal, state and local government web resources and services.